Weather Roundup
Issued by NWS

Home | Current Version | Previous Version | Text Only | Print | Product List | Glossary On
Versions: 1 2 3 4 5 6 7 8 9 10 11 12 13 14 15 16 17 18 19 20 21 22 23 24 25 26 27 28 29 30 31 32 33 34 35 36 37 38 39 40 41 42 43 44 45 46 47 48 49 50
000
NZUS93 KARX 241959
HRRWXR

CURRENT HOURLY OBSERVATIONS ACROSS
MUCH OF THE UPPER MISSISSIPPI VALLEY
NATIONAL WEATHER SERVICE LA CROSSE WI
200 PM CST SAT JAN 24 2015


...SOUTHEAST MINNESOTA...


CITY           SKY/WX    TMP DP  RH WIND       PRES   REMARKS
ROCHESTER      SUNNY     36  31  82 SW8       29.62F WCI  30
ROCHESTER/MAYO FAIR      39  31  72 SW7       29.61F WCI  34
WINONA         MOSUNNY   41  32  70 W5        29.63F
AUSTIN         SUNNY     39  32  75 SW7       29.61F WCI  34
ALBERT LEA     SUNNY     43  36  75 W7        29.60F
DODGE CENTER   SUNNY     36  34  93 W7        29.60F WCI  30
PRESTON        SUNNY     35  31  83 W10       29.63S WCI  27
OWATONNA       SUNNY     37  34  87 S3        29.61F
FARIBAULT      SUNNY     39  32  75 SW3       29.60F
$$

...ELSEWHERE IN MINNESOTA...


CITY           SKY/WX    TMP DP  RH WIND       PRES   REMARKS
MINNEAPOLIS    PTSUNNY   41  31  67 VRB5      29.59F
INTNL FALLS    SUNNY     24   9  52 NE10      29.66S WCI  14
DULUTH         FLURRIES  36  28  73 N7        29.58R WCI  30
RED WING       SUNNY     41  30  65 W3        29.60F
REDWOOD FALLS  CLOUDY    39  32  76 W8        29.59F WCI  33
MANKATO        MOSUNNY   39  32  75 SW6       29.60F WCI  35
WORTHINGTON    CLOUDY    36  30  80 W13       29.61F WCI  27
FAIRMONT       PTSUNNY   41  30  65 SW8       29.60F
$$

...SOUTHWEST WISCONSIN...


CITY           SKY/WX    TMP DP  RH WIND       PRES   REMARKS
LA CROSSE      PTSUNNY   42  31  64 CALM      29.62F
PRAIRIE DU CHI MOSUNNY   44  32  64 SW7       29.64F
BOSCOBEL       CLOUDY    42  32  67 SW6       29.63F
LONE ROCK      CLOUDY    35  31  85 W6        29.64F WCI  30
PLATTEVILLE    PTSUNNY   37  34  89 SW6       29.64F WCI  32
FORT MC COY    CLOUDY    36  30  80 W6        29.63F WCI  31
VIROQUA        CLOUDY    38  32  81 W8        29.60F WCI  32
WIS DELLS      NOT AVBL
$$

...ELSEWHERE IN WISCONSIN...


CITY           SKY/WX    TMP DP  RH WIND       PRES   REMARKS
MILWAUKEE      CLOUDY    40  30  67 W8        29.60F WCI  34
MADISON        CLOUDY    35  29  78 W8        29.62F WCI  29
GREEN BAY      CLOUDY    38  32  79 W12       29.58S WCI  30
EAU CLAIRE     NOT AVBL
BLACK RVR FLS  CLOUDY    37  30  78 W3        29.61F
MEDFORD        CLOUDY    35  30  82 NW6       29.57F WCI  30
WAUSAU         CLOUDY    35  30  82 W7        29.55  WCI  29
WIS RAPIDS     CLOUDY    35  30  82 W6        29.60  WCI  30
MARSHFIELD     CLOUDY    35  30  82 W9        29.58  WCI  28
RICE LAKE      CLOUDY    36  30  78 W3        29.62F
$$

...NORTHEAST IOWA...


CITY           SKY/WX    TMP DP  RH WIND       PRES   REMARKS
DECORAH        SUNNY     41  36  81 W7G13     29.63F
MASON CITY     SUNNY     42  35  76 W10       29.63F
CHARLES CITY   SUNNY     43  37  81 W10       29.65F
OELWEIN        SUNNY     41  36  81 W9        29.65F
$$

...ELSEWHERE IN IOWA...


CITY           SKY/WX    TMP DP  RH WIND       PRES   REMARKS
DES MOINES     PTSUNNY   53  32  44 W13       29.68F
IOWA CITY      SUNNY     48  35  60 W10       29.69F
FORT DODGE     MOSUNNY   45  36  70 SW9       29.66F
$$

...NORTHERN ILLINOIS...


CITY           SKY/WX    TMP DP  RH WIND       PRES   REMARKS
CHICAGO-OHARE  CLOUDY    39  30  70 W12       29.63S WCI  32
CHICAGO-MIDWAY PTSUNNY   42  31  64 W15       29.64F
MOLINE         SUNNY     47  35  63 W9        29.67F
ROCKFORD       CLOUDY    35  30  82 W12       29.66F WCI  27
PEORIA         SUNNY     48  35  60 W10       29.71F
$$

NOTE: "FAIR" INDICATES FEW OR NO CLOUDS BELOW 12,000 FEET WITH NO
SIGNIFICANT WEATHER AND/OR OBSTRUCTIONS TO VISIBILITY. WIND
SPEEDS ARE IN MILES-PER-HOUR.



USA.gov is the U.S. government's official web portal to all federal, state and local government web resources and services.